Regional Weather Roundup
Issued by NWS

Home | Current Version | Previous Version | Graphics & Text | Print | Product List | Glossary On
Versions: 1 2 3 4 5 6 7 8 9 10 11 12 13 14 15 16 17 18 19 20 21 22 23 24 25 26 27 28 29 30 31 32 33 34 35 36 37 38 39 40 41 42 43 44 45 46 47 48 49 50
000
ASUS43 KIND 280809
RWRIN

WEATHER ROUNDUP FOR INDIANA
NATIONAL WEATHER SERVICE INDIANAPOLIS IN
300 AM EST FRI NOV 28 2014

NOTE: "FAIR" INDICATES FEW OR NO CLOUDS BELOW 12,000 FEET WITH NO
SIGNIFICANT WEATHER AND/OR OBSTRUCTIONS TO VISIBILITY.

* - STATION DOES NOT REPORT WEATHER SUCH AS PRECIPITATION OR FOG.

+ - STATION NOT QUALITY CONTROLLED BY THE NATIONAL WEATHER SERVICE.
    USE DATA WITH CAUTION...ESPECIALLY DEWPOINT AND RELATIVE
    HUMIDITY OBSERVATIONS.

INZ001>003-010>013-019-020-280900-
NORTHWEST INDIANA

CITY           SKY/WX    TMP DP  RH WIND       PRES   REMARKS
GARY /AIRPORT/ PTCLDY    21  14  75 CALM      30.38R
KNOX *+        PTCLDY    18  15  88 CALM      30.36S
LA PORTE +     PTCLDY    20  16  83 CALM      30.35S
MICHIGAN CITY+ MOCLDY    21  12  68 CALM      30.36S
MONTICELLO +   PTCLDY    19  17  91 W5        30.37S WCI  12
RENSSELAER +   MOCLDY    21  19  93 SW8       30.39R WCI  12
VALPARAISO     PTCLDY    16  13  88 SW5       30.36R WCI   9

$$

LMZ046-743>745-280900-
SOUTHERN LAKE MICHIGAN

STATION/POSITION TIME  TEMP WIND        PRES
                       AIR  DIR/SP/G
                 (UTC) (F)  (DEG/KT/KT) (MB)
MICHIGAN CITY    0800   22  150/  5/  6   N/A

$$

INZ004-005-014>016-021>024-280900-
NORTH CENTRAL INDIANA

CITY           SKY/WX    TMP DP  RH WIND       PRES   REMARKS
GOSHEN         PTCLDY    17  13  84 CALM      30.35S
LOGANSPORT +   MOCLDY    21  12  68 CALM      30.37S
ROCHESTER +    CLEAR     23  18  80 CALM      30.36S
SOUTH BEND     PTCLDY    19  12  74 W6        30.35S WCI  11
WARSAW +       PTCLDY    18  14  86 CALM      30.35S

$$

INZ006>009-017-018-025>027-280900-
NORTHEAST INDIANA

CITY           SKY/WX    TMP DP  RH WIND       PRES   REMARKS
ANGOLA *+      CLOUDY    21  18  86 W3        30.34R
AUBURN +       CLOUDY    21  18  86 W5        30.37R WCI  15
FORT WAYNE     MOCLDY    21  16  81 W6        30.37R WCI  13
HUNTINGTON +   PTCLDY    19  14  82 CALM      30.36S

$$

INZ028-029-035-036-043>045-051>053-280900-
WEST CENTRAL INDIANA

CITY           SKY/WX    TMP DP  RH WIND       PRES   REMARKS
GREENCASTLE +  CLEAR     19  18  93 SW3       30.39R
LAFAYETTE      CLEAR     17  15  92 CALM      30.39R
TERRE HAUTE    MOCLDY    20  15  81 W6        30.42S WCI  12

$$

INZ030>032-037>040-046>048-054>057-064-065-280900-
CENTRAL INDIANA

CITY           SKY/WX    TMP DP  RH WIND       PRES   REMARKS
CP ATTERBURY + MOCLDY    23  19  86 CALM      30.39S
FRANKFORT +    CLEAR     16  16 100 CALM      30.37F
INDIANAPOLIS   MOCLDY    20  16  84 SW5       30.36F WCI  13
-EAGLE CREEK   CLEAR     19  13  77 CALM      30.35F
KOKOMO *+      PTCLDY    21  18  86 W3        30.36F
MARION +         N/A     24  18  78 W6        30.36F WCI  16
MT COMFORT *+  CLEAR     19  16  86 CALM      30.37S
SHELBYVILLE    MOCLDY    25  18  74 NW3       30.37S
ZIONSVILLE +   CLEAR     18  13  82 CALM      30.36F

$$

INZ033-034-041-042-049-050-058-059-280900-
EAST CENTRAL INDIANA

CITY           SKY/WX    TMP DP  RH WIND       PRES   REMARKS
MUNCIE         CLOUDY    24  17  74 CALM      30.36S

$$

INZ060-061-067>069-081>083-085>088-280900-
SOUTHWEST INDIANA

CITY           SKY/WX    TMP DP  RH WIND       PRES   REMARKS
EVANSVILLE     MOCLDY    25  20  81 SW3       30.45S
HUNTINGBURG *+ PTCLDY    21  16  79 CALM      30.44S
WASHINGTON +   PTCLDY    22  19  88 CALM      30.43F

$$

INZ062-063-066-070>080-084-089>092-280900-
SOUTH CENTRAL AND SOUTHEAST INDIANA

CITY           SKY/WX    TMP DP  RH WIND       PRES   REMARKS
BLOOMINGTON    CLEAR     18  15  88 SW3       30.39F
SEYMOUR +      FAIR      23  19  86 CALM      30.40

$$




USA.gov is the U.S. government's official web portal to all federal, state and local government web resources and services.